This demonstration page uses our WeatherBlox Daily Observations layout. Learn more.

Left ArrowRight Arrow

Hourly Observations for June 18, 2018

Temp ( °F °C ) Dew Point ( °F °C ) Humidity (%) Winds ( mph kmh ) Pressure ( in mb ) Visibility ( mi km ) Precip ( " mm )
12:57 am 00:57 Mostly Cloudy 79 26.1 66 18.9 65 65 VRB 5 7 29.85 1011 10 16 0.00 0.00
1:57 am 01:57 Cloudy 71 21.7 66 18.9 84 84 NNE 15 24 29.86 1011 10 16 0.00 0.00
2:57 am 02:57 Cloudy 68 20 67 19.4 96 96 ENE 10 17 29.86 1011 9 14 0.01 0.25
3:57 am 03:57 Cloudy 69 20.6 68 20 96 96 E 8 13 29.87 1011 10 16 0.00 0.00
4:57 am 04:57 Partly Cloudy 69 20.6 68 20 96 96 ESE 8 13 29.86 1011 9 14 0.00 0.00
5:57 am 05:57 Clear 69 20.6 68 20 96 96 ESE 8 13 29.86 1011 7 11 0.00 0.00
6:57 am 06:57 Sunny 71 21.7 69 20.6 94 94 E 5 7 29.87 1012 10 16 0.00 0.00
7:57 am 07:57 Sunny 72 22.2 70 21.1 94 94 ESE 5 7 29.87 1012 10 16 0.00 0.00
8:57 am 08:57 Sunny 75 23.9 70 21.1 84 84 SSE 9 15 29.88 1012 10 16 0.00 0.00
9:57 am 09:57 Mostly Sunny 79 26.1 71 21.7 77 77 S 8 13 29.87 1012 9 14 0.00 0.00
10:57 am 10:57 Sunny 83 28.3 70 21.1 65 65 S 12 19 29.86 1011 8 13 0.00 0.00
11:57 am 11:57 Hazy 83 28.3 69 20.6 63 63 SW 12 19 29.87 1012 5 8 0.00 0.00
12:57 pm 12:57 Hazy 85 29.4 70 21.1 61 61 SSW 10 17 29.86 1011 6 10 0.00 0.00
1:57 pm 13:57 Hazy 86 30 68 20 55 55 S 13 20 29.85 1011 5 8 0.00 0.00
2:42 pm 14:42 Hazy 91 33 68 20 46 46 S 20 31 29.74 1007 5 8 0.00 0.00
2:57 pm 14:57 Mostly Sunny 90 32.2 67 19.4 47 47 SSW 21 33 29.84 1010 10 16 0.00 0.00
3:57 pm 15:57 Mostly Sunny 92 33.3 67 19.4 44 44 SSW 20 31 29.82 1010 7 11 0.00 0.00
4:57 pm 16:57 Mostly Cloudy 91 32.8 68 20 47 47 S 15 24 29.79 1009 10 16 0.00 0.00
5:57 pm 17:57 Sunny 91 32.8 68 20 47 47 WSW 12 19 29.79 1009 10 16 0.00 0.00
6:57 pm 18:57 Sunny 90 32.2 67 19.4 47 47 W 12 19 29.80 1009 10 16 0.00 0.00
7:57 pm 19:57 Sunny 88 31.1 70 21.1 55 55 WNW 12 19 29.81 1010 10 16 0.00 0.00
8:44 pm 20:44 Sunny 81 27 72 22 74 74 NNW 15 24 29.77 1008 10 16 0.00 0.00
8:57 pm 20:57 Sunny 80 26.7 71 21.7 74 74 NNW 16 26 29.84 1010 10 16 0.00 0.00
9:57 pm 21:57 Clear 75 23.9 69 20.6 82 82 N 15 24 29.87 1012 10 16 0.00 0.00
10:57 pm 22:57 Mostly Clear 74 23.3 69 20.6 85 85 NNW 9 15 29.89 1012 10 16 0.00 0.00
11:20 pm 23:20 Mostly Cloudy 73 23 70 21 89 89 N 9 15 29.85 1011 10 16 0.00 0.00
11:57 pm 23:57 Cloudy 73 22.8 69 20.6 87 87 NNE 5 7 29.91 1013 10 16 0.00 0.00

Powered by AerisWeather